FW6456 Weather Reports


time (UTC)temp
C
wind
direction
speed
KPH
gust
KPH
rain 1hr
cm
rain 24hr
cm
rain mn
cm
humidity
%
barometer
mb
20260509005326 18 149 0.0 0.0 0.00 0.00 0.00 63 3402.6
20260509004826 18 149 0.0 0.0 0.00 0.00 0.00 61 3402.2
20260509004322 19 149 0.0 0.0 0.00 0.00 0.00 61 3402.4
20260509003820 19 149 0.0 0.0 0.00 0.00 0.00 60 3402.6
20260509003318 20 149 0.0 0.0 0.00 0.00 0.00 60 3402.3
20260509002815 20 149 0.0 0.0 0.00 0.00 0.00 59 3402.3
20260509002312 20 149 0.0 0.0 0.00 0.00 0.00 56 3402.4
20260509001810 20 149 0.0 0.0 0.00 0.00 0.00 55 3402.8
20260509001305 20 149 0.0 0.0 0.00 0.00 0.00 55 3402.3
20260509000803 21 149 0.0 0.0 0.00 0.00 0.00 54 3402.7
20260509000303 21 149 0.0 0.0 0.00 0.00 0.00 52 3402.7
20260508235757 21 149 0.0 0.0 0.00 0.00 0.00 52 3402.6
20260508235254 21 149 0.0 0.0 0.00 0.00 0.00 52 3402.6
20260508234751 21 200 1.6 4.8 0.00 0.00 0.00 50 3402.9
20260508234247 21 138 0.0 0.0 0.00 0.00 0.00 50 3402.6
20260508233741 21 105 0.0 0.0 0.00 0.00 0.00 52 3402.7
20260508233239 21 97 0.0 0.0 0.00 0.00 0.00 48 3402.8
20260508232736 21 115 0.0 0.0 0.00 0.00 0.00 48 3402.7
20260508232232 22 117 0.0 0.0 0.00 0.00 0.00 48 3402.8
20260508231730 22 153 1.6 3.2 0.00 0.00 0.00 48 3403.0
20260508231227 22 138 1.6 3.2 0.00 0.00 0.00 46 3402.9
20260508230724 22 82 0.0 0.0 0.00 0.00 0.00 46 3403.0
20260508230220 23 39 4.8 4.8 0.00 0.00 0.00 46 3403.0
20260508225718 23 131 1.6 3.2 0.00 0.00 0.00 44 3403.0
20260508225214 23 118 1.6 3.2 0.00 0.00 0.00 44 3403.0
20260508224712 23 112 1.6 3.2 0.00 0.00 0.00 45 3402.9
20260508224209 23 54 6.4 11.3 0.00 0.00 0.00 45 3403.0
20260508223707 23 154 1.6 3.2 0.00 0.00 0.00 46 3403.1
20260508223204 23 142 3.2 4.8 0.00 0.00 0.00 47 3403.1
20260508222701 23 126 1.6 3.2 0.00 0.00 0.00 44 3403.2
20260508222158 23 170 3.2 4.8 0.00 0.00 0.00 44 3403.2
20260508221654 23 115 0.0 0.0 0.00 0.00 0.00 44 3403.2
20260508221150 24 175 3.2 8.0 0.00 0.00 0.00 43 3403.3
20260508220647 24 161 1.6 3.2 0.00 0.00 0.00 46 3403.3
20260508220144 24 154 3.2 4.8 0.00 0.00 0.00 46 3403.1
20260508215640 24 163 8.0 11.3 0.00 0.00 0.00 44 3402.9
20260508215137 24 172 3.2 3.2 0.00 0.00 0.00 45 3403.0
20260508214634 23 88 1.6 3.2 0.00 0.00 0.00 45 3403.0
20260508214131 24 79 3.2 4.8 0.00 0.00 0.00 45 3403.0
20260508213628 24 141 3.2 4.8 0.00 0.00 0.00 45 3403.1
20260508213124 23 124 0.0 0.0 0.00 0.00 0.00 44 3403.1
20260508212620 23 106 1.6 3.2 0.00 0.00 0.00 48 3403.2
20260508212117 23 107 1.6 3.2 0.00 0.00 0.00 46 3403.5
20260508211612 23 158 4.8 8.0 0.00 0.00 0.00 46 3403.4
20260508211109 23 117 3.2 4.8 0.00 0.00 0.00 46 3403.3
20260508210605 23 162 3.2 4.8 0.00 0.00 0.00 50 3403.4
20260508210103 23 99 0.0 0.0 0.00 0.00 0.00 47 3403.5
20260508205600 22 123 4.8 4.8 0.00 0.00 0.00 48 3403.6
20260508205056 22 84 3.2 4.8 0.00 0.00 0.00 46 3403.5
20260508204553 22 151 4.8 4.8 0.00 0.00 0.00 50 3403.8
20260508204048 22 87 0.0 0.0 0.00 0.00 0.00 46 3403.8
20260508203545 22 117 1.6 3.2 0.00 0.00 0.00 49 3403.8
20260508203041 22 100 3.2 3.2 0.00 0.00 0.00 45 3403.9
20260508202538 23 70 6.4 8.0 0.00 0.00 0.00 45 3403.8
20260508202035 22 152 3.2 8.0 0.00 0.00 0.00 47 3404.0
20260508201532 22 189 3.2 4.8 0.00 0.00 0.00 46 3404.1
20260508201028 22 74 6.4 8.0 0.00 0.00 0.00 44 3404.2
20260508200526 22 97 0.0 3.2 0.00 0.00 0.00 49 3404.4
20260508200021 22 115 3.2 4.8 0.00 0.00 0.00 45 3404.4
20260508195518 22 98 0.0 0.0 0.00 0.00 0.00 48 3404.6
20260508195014 22 138 6.4 8.0 0.00 0.00 0.00 45 3404.8
20260508194511 23 115 4.8 4.8 0.00 0.00 0.00 45 3404.8
20260508194009 23 130 3.2 4.8 0.00 0.00 0.00 46 3404.8
20260508193505 23 85 1.6 3.2 0.00 0.00 0.00 43 3405.1
20260508193002 22 107 1.6 3.2 0.00 0.00 0.00 49 3405.2
20260508192458 22 166 3.2 4.8 0.00 0.00 0.00 48 3405.3
20260508191955 22 283 9.7 12.9 0.00 0.00 0.00 44 3405.5
20260508191452 22 93 3.2 4.8 0.00 0.00 0.00 47 3405.2
20260508190949 22 266 4.8 11.3 0.00 0.00 0.00 45 3405.5
20260508190446 22 185 3.2 4.8 0.00 0.00 0.00 44 3405.7
20260508185942 22 136 0.0 3.2 0.00 0.00 0.00 46 3405.5
20260508185440 22 15 3.2 4.8 0.00 0.00 0.00 45 3405.7
20260508184937 22 186 3.2 3.2 0.00 0.00 0.00 45 3405.6
20260508184435 22 147 0.0 3.2 0.00 0.00 0.00 46 3405.9
20260508183931 22 130 6.4 11.3 0.00 0.00 0.00 43 3405.8
20260508183428 22 104 3.2 4.8 0.00 0.00 0.00 45 3405.7
20260508182923 22 84 1.6 3.2 0.00 0.00 0.00 45 3405.7
20260508182420 22 164 4.8 8.0 0.00 0.00 0.00 44 3405.8
20260508181915 22 127 0.0 0.0 0.00 0.00 0.00 45 3405.8
20260508181412 22 110 1.6 3.2 0.00 0.00 0.00 46 3405.9
20260508180910 22 95 1.6 3.2 0.00 0.00 0.00 47 3406.0
20260508180406 22 193 4.8 8.0 0.00 0.00 0.00 48 3406.2
20260508175902 22 171 6.4 8.0 0.00 0.00 0.00 48 3406.0
20260508175359 22 93 0.0 3.2 0.00 0.00 0.00 49 3405.8
20260508174857 22 161 3.2 4.8 0.00 0.00 0.00 46 3406.0
20260508174354 21 126 0.0 3.2 0.00 0.00 0.00 49 3406.0
20260508173850 22 106 6.4 8.0 0.00 0.00 0.00 46 3405.8
20260508173348 21 103 1.6 3.2 0.00 0.00 0.00 43 3406.2
20260508172843 22 159 3.2 3.2 0.00 0.00 0.00 47 3406.3
20260508172341 21 162 4.8 8.0 0.00 0.00 0.00 50 3406.6
20260508171837 21 177 3.2 4.8 0.00 0.00 0.00 47 3406.5
20260508171334 21 175 4.8 8.0 0.00 0.00 0.00 45 3406.7
20260508170830 21 338 1.6 8.0 0.00 0.00 0.00 47 3406.7
20260508170328 21 195 3.2 4.8 0.00 0.00 0.00 46 3406.9
20260508165825 21 88 0.0 0.0 0.00 0.00 0.00 49 3407.0
20260508165322 20 199 3.2 4.8 0.00 0.00 0.00 49 3407.0
20260508164818 20 122 0.0 3.2 0.00 0.00 0.00 54 3407.0
20260508164315 21 119 4.8 8.0 0.00 0.00 0.00 47 3407.2
20260508163813 21 24 3.2 4.8 0.00 0.00 0.00 50 3407.3
20260508163310 20 84 1.6 3.2 0.00 0.00 0.00 50 3407.4
20260508162806 20 89 3.2 3.2 0.00 0.00 0.00 53 3407.7
20260508162306 20 139 1.6 4.8 0.00 0.00 0.00 55 3407.7
20260508161801 20 5 12.9 17.7 0.00 0.00 0.00 52 3407.7
20260508161257 20 165 3.2 4.8 0.00 0.00 0.00 53 3407.9
20260508160755 20 138 1.6 3.2 0.00 0.00 0.00 53 3408.0
20260508160253 20 85 1.6 3.2 0.00 0.00 0.00 55 3408.3
20260508155749 20 142 0.0 3.2 0.00 0.00 0.00 54 3408.3
20260508155246 19 303 3.2 4.8 0.00 0.00 0.00 53 3408.2
20260508154743 19 152 1.6 3.2 0.00 0.00 0.00 59 3408.5
20260508154241 19 173 1.6 3.2 0.00 0.00 0.00 54 3408.5
20260508153737 18 150 0.0 0.0 0.00 0.00 0.00 54 3408.5
20260508153235 18 108 3.2 3.2 0.00 0.00 0.00 59 3408.6
20260508152731 18 144 0.0 0.0 0.00 0.00 0.00 56 3408.6
20260508152227 18 133 1.6 3.2 0.00 0.00 0.00 58 3408.5
20260508151723 18 135 1.6 4.8 0.00 0.00 0.00 58 3408.7
20260508151220 18 100 0.0 0.0 0.00 0.00 0.00 59 3408.5
20260508150717 17 146 3.2 4.8 0.00 0.00 0.00 58 3408.6
20260508150214 17 151 1.6 3.2 0.00 0.00 0.00 55 3408.7
20260508145709 17 150 3.2 4.8 0.00 0.00 0.00 59 3408.8
20260508145206 17 117 0.0 3.2 0.00 0.00 0.00 58 3408.6
20260508144703 17 166 3.2 4.8 0.00 0.00 0.00 57 3408.8
20260508144201 17 162 1.6 4.8 0.00 0.00 0.00 58 3408.7
20260508143658 17 252 4.8 8.0 0.00 0.00 0.00 60 3408.7
20260508143155 16 166 0.0 0.0 0.00 0.00 0.00 60 3408.7
20260508142651 16 163 1.6 3.2 0.00 0.00 0.00 61 3408.7
20260508142148 16 177 4.8 11.3 0.00 0.00 0.00 61 3408.8
20260508141644 16 157 1.6 3.2 0.00 0.00 0.00 63 3408.8
20260508141142 15 110 6.4 11.3 0.00 0.00 0.00 66 3408.9
20260508140640 15 271 0.0 0.0 0.00 0.00 0.00 71 3408.9
20260508140136 15 160 3.2 3.2 0.00 0.00 0.00 72 3409.0
20260508135631 15 160 0.0 0.0 0.00 0.00 0.00 73 3408.9
20260508135127 14 160 0.0 0.0 0.00 0.00 0.00 74 3409.2
20260508134625 13 160 0.0 0.0 0.00 0.00 0.00 74 3409.0
20260508134122 13 160 0.0 0.0 0.00 0.00 0.00 77 3409.0
20260508133618 13 160 0.0 0.0 0.00 0.00 0.00 77 3409.2
20260508133116 12 160 0.0 0.0 0.00 0.00 0.00 77 3409.0
20260508132614 12 160 0.0 0.0 0.00 0.00 0.00 77 3409.1
20260508132110 12 160 0.0 0.0 0.00 0.00 0.00 76 3409.2
20260508131606 11 161 1.6 3.2 0.00 0.00 0.00 77 3409.2
20260508131103 11 142 0.0 3.2 0.00 0.00 0.00 78 3409.0
20260508130559 10 134 1.6 3.2 0.00 0.00 0.00 81 3408.8
20260508130056 10 129 0.0 0.0 0.00 0.00 0.00 87 3409.0
20260508125551 9 127 3.2 4.8 0.00 0.00 0.00 92 3408.9
20260508125050 8 89 1.6 3.2 0.00 0.00 0.00 97 3409.0
20260508124548 8 60 0.0 0.0 0.00 0.00 0.00 99 3408.7
20260508124044 8 51 0.0 0.0 0.00 0.00 0.00 99 3409.0
20260508123543 7 49 0.0 0.0 0.00 0.00 0.00 99 3408.8
20260508123039 7 49 0.0 0.0 0.00 0.00 0.00 99 3408.7
20260508122536 7 46 0.0 0.0 0.00 0.00 0.00 99 3408.8
20260508122033 7 46 0.0 0.0 0.00 0.00 0.00 99 3408.9
20260508121531 6 46 0.0 0.0 0.00 0.00 0.00 99 3408.7
20260508121029 6 46 0.0 0.0 0.00 0.00 0.00 99 3408.6
20260508120526 6 46 0.0 0.0 0.00 0.00 0.00 99 3408.7
20260508120024 5 46 0.0 0.0 0.00 0.00 0.00 99 3408.7
20260508115521 5 46 0.0 0.0 0.00 0.00 0.00 99 3408.7
20260508115018 5 47 0.0 0.0 0.00 0.00 0.00 99 3408.6
20260508114514 5 47 0.0 0.0 0.00 0.00 0.00 99 3408.7
20260508114011 5 47 0.0 0.0 0.00 0.00 0.00 99 3408.8
20260508113509 5 47 0.0 0.0 0.00 0.00 0.00 99 3408.8
20260508113006 5 47 0.0 0.0 0.00 0.00 0.00 99 3408.7
20260508112502 5 47 0.0 0.0 0.00 0.00 0.00 99 3408.7
20260508111959 5 47 0.0 0.0 0.00 0.00 0.00 99 3408.5
20260508111456 4 47 0.0 0.0 0.00 0.00 0.00 99 3408.5
20260508110953 4 47 0.0 0.0 0.00 0.00 0.00 99 3408.5
20260508110451 4 47 0.0 0.0 0.00 0.00 0.00 99 3408.4
20260508105950 4 47 0.0 0.0 0.00 0.00 0.00 99 3408.3
20260508105447 4 47 0.0 0.0 0.00 0.00 0.00 99 3408.3
20260508104944 4 47 0.0 0.0 0.00 0.00 0.00 99 3408.3
20260508104442 4 47 0.0 0.0 0.00 0.00 0.00 99 3408.4
20260508103938 4 47 0.0 0.0 0.00 0.00 0.00 99 3408.4
20260508103436 4 47 0.0 0.0 0.00 0.00 0.00 99 3408.4
20260508102932 4 47 0.0 0.0 0.00 0.00 0.00 99 3408.2
20260508102431 4 47 0.0 0.0 0.00 0.00 0.00 99 3408.2
20260508101927 5 47 0.0 0.0 0.00 0.00 0.00 99 3408.2
20260508101425 4 47 0.0 0.0 0.00 0.00 0.00 99 3408.2
20260508100922 4 47 0.0 0.0 0.00 0.00 0.00 99 3408.3
20260508100421 5 47 0.0 0.0 0.00 0.00 0.00 99 3408.3
20260508095917 4 47 0.0 0.0 0.00 0.00 0.00 99 3408.1
20260508095414 5 47 0.0 0.0 0.00 0.00 0.00 99 3408.3
20260508094910 5 47 0.0 0.0 0.00 0.00 0.00 99 3408.2
20260508094408 5 47 0.0 0.0 0.00 0.00 0.00 99 3408.2
20260508093905 5 47 0.0 0.0 0.00 0.00 0.00 99 3408.4
20260508093402 5 47 0.0 0.0 0.00 0.00 0.00 99 3408.4
20260508092900 5 47 0.0 0.0 0.00 0.00 0.00 99 3408.5
20260508092357 5 47 0.0 0.0 0.00 0.00 0.00 99 3408.0
20260508091856 5 47 0.0 0.0 0.00 0.00 0.00 99 3408.4
20260508091352 5 47 0.0 0.0 0.00 0.00 0.00 99 3408.4
20260508090849 5 47 0.0 0.0 0.00 0.00 0.00 99 3408.2
20260508090348 5 47 0.0 0.0 0.00 0.00 0.00 99 3408.2
20260508085843 5 47 0.0 0.0 0.00 0.00 0.00 99 3408.3
20260508085340 5 47 0.0 0.0 0.00 0.00 0.00 99 3408.2
20260508084837 5 47 0.0 0.0 0.00 0.00 0.00 99 3408.3
20260508084333 5 47 0.0 0.0 0.00 0.00 0.00 99 3408.3
20260508083831 5 47 0.0 0.0 0.00 0.00 0.00 99 3408.4
20260508083328 5 47 0.0 0.0 0.00 0.00 0.00 99 3408.3
20260508082828 5 47 0.0 0.0 0.00 0.00 0.00 99 3408.4
20260508082326 5 47 0.0 0.0 0.00 0.00 0.00 99 3408.6
20260508081823 5 47 0.0 0.0 0.00 0.00 0.00 99 3408.5
20260508081320 5 47 0.0 0.0 0.00 0.00 0.00 99 3408.4
20260508080817 5 47 0.0 0.0 0.00 0.00 0.00 99 3408.6
20260508080315 5 47 0.0 0.0 0.00 0.00 0.00 99 3408.5
20260508075811 5 47 0.0 0.0 0.00 0.00 0.00 99 3408.6
20260508075309 5 47 0.0 0.0 0.00 0.00 0.00 99 3408.8
20260508074806 5 47 0.0 0.0 0.00 0.00 0.00 99 3408.7
20260508074303 5 46 0.0 0.0 0.00 0.00 0.00 99 3408.5
20260508073800 5 46 0.0 0.0 0.00 0.00 0.00 99 3408.6
20260508073258 5 46 0.0 0.0 0.00 0.00 0.00 99 3408.7
20260508072753 5 46 0.0 0.0 0.00 0.00 0.00 99 3408.8
20260508072251 5 46 0.0 0.0 0.00 0.00 0.00 99 3408.9
20260508071748 5 46 0.0 0.0 0.00 0.00 0.00 99 3408.8
20260508071246 5 46 0.0 0.0 0.00 0.00 0.00 99 3408.8
20260508070743 5 46 0.0 0.0 0.00 0.00 0.00 99 3408.8
20260508070242 6 46 0.0 0.0 0.00 0.00 0.00 99 3408.8
20260508065738 6 46 0.0 0.0 0.00 0.00 0.00 99 3408.6
20260508065236 6 46 0.0 0.0 0.00 0.00 0.00 98 3408.7
20260508064734 6 46 0.0 0.0 0.00 0.00 0.00 98 3408.9
20260508064232 6 46 0.0 0.0 0.00 0.00 0.00 98 3408.9
20260508063729 6 46 0.0 0.0 0.00 0.00 0.00 98 3408.8
20260508063227 6 46 0.0 0.0 0.00 0.00 0.00 98 3409.0
20260508062724 6 46 0.0 0.0 0.00 0.00 0.00 98 3409.1
20260508062222 6 46 0.0 0.0 0.00 0.00 0.00 98 3409.0
20260508061718 6 46 0.0 0.0 0.00 0.00 0.00 98 3409.0
20260508061216 6 46 0.0 0.0 0.00 0.00 0.00 98 3409.0
20260508060712 6 46 0.0 0.0 0.00 0.00 0.00 98 3409.1
20260508060210 6 46 0.0 0.0 0.00 0.00 0.00 98 3409.0
20260508055705 6 46 0.0 0.0 0.00 0.00 0.00 98 3409.0
20260508055202 6 46 0.0 0.0 0.00 0.00 0.00 98 3409.0
20260508054658 6 46 0.0 0.0 0.00 0.00 0.00 98 3409.2
20260508054156 6 46 0.0 0.0 0.00 0.00 0.00 98 3408.9
20260508053653 6 46 0.0 0.0 0.00 0.00 0.00 97 3409.1
20260508053150 6 46 0.0 0.0 0.00 0.00 0.00 97 3409.0
20260508052648 6 46 0.0 0.0 0.00 0.00 0.00 97 3409.0
20260508052144 6 46 0.0 0.0 0.00 0.00 0.00 97 3409.1
20260508051641 6 46 0.0 0.0 0.00 0.00 0.00 97 3409.1
20260508051136 6 46 0.0 0.0 0.00 0.00 0.00 97 3409.0
20260508050633 6 46 0.0 0.0 0.00 0.00 0.00 97 3408.9
20260508050131 6 46 0.0 0.0 0.00 0.00 0.00 97 3408.8
20260508045626 6 46 0.0 0.0 0.00 0.00 0.00 96 3409.1
20260508045124 7 44 0.0 0.0 0.00 0.00 0.00 96 3408.8
20260508044621 7 44 0.0 0.0 0.00 0.00 0.00 96 3409.0
20260508044117 6 44 0.0 0.0 0.00 0.00 0.00 96 3409.2
20260508043614 7 44 0.0 0.0 0.00 0.00 0.00 96 3409.2
20260508043112 7 44 0.0 0.0 0.00 0.00 0.00 95 3409.2
20260508042608 7 44 0.0 0.0 0.00 0.00 0.00 95 3409.3
20260508042106 7 44 0.0 0.0 0.00 0.00 0.00 95 3409.4
20260508041601 7 44 0.0 0.0 0.00 0.00 0.00 95 3409.5
20260508041058 7 44 0.0 0.0 0.00 0.00 0.00 95 3408.9
20260508040555 7 44 0.0 0.0 0.00 0.00 0.00 94 3409.1
20260508040053 7 44 0.0 0.0 0.00 0.00 0.00 94 3409.1
20260508035549 7 44 0.0 0.0 0.00 0.00 0.00 94 3409.2
20260508035047 7 44 0.0 0.0 0.00 0.00 0.00 93 3408.9
20260508034543 7 44 0.0 0.0 0.00 0.00 0.00 92 3409.0
20260508034040 7 44 0.0 0.0 0.00 0.00 0.00 92 3408.9
20260508033538 7 43 0.0 0.0 0.00 0.00 0.00 92 3408.9
20260508033036 8 39 0.0 0.0 0.00 0.00 0.00 91 3409.1
20260508032532 8 39 0.0 0.0 0.00 0.00 0.00 90 3409.0
20260508032030 8 39 0.0 0.0 0.00 0.00 0.00 90 3409.0
20260508031527 8 39 0.0 0.0 0.00 0.00 0.00 89 3409.0
20260508031023 8 39 0.0 0.0 0.00 0.00 0.00 89 3409.0
20260508030520 8 39 0.0 0.0 0.00 0.00 0.00 89 3408.9
20260508030018 8 39 0.0 0.0 0.00 0.00 0.00 88 3409.0
20260508025513 8 39 0.0 0.0 0.00 0.00 0.00 87 3408.9
20260508025010 8 39 0.0 0.0 0.00 0.00 0.00 86 3409.0
20260508024506 8 39 0.0 0.0 0.00 0.00 0.00 85 3409.1
20260508024003 8 39 0.0 0.0 0.00 0.00 0.00 84 3409.1
20260508023500 8 39 0.0 0.0 0.00 0.00 0.00 83 3409.1
20260508022958 9 39 0.0 0.0 0.00 0.00 0.00 83 3409.1
20260508022453 9 39 0.0 0.0 0.00 0.00 0.00 82 3409.1
20260508021950 9 39 0.0 0.0 0.00 0.00 0.00 81 3408.9
20260508021446 9 39 0.0 0.0 0.00 0.00 0.00 80 3408.9
20260508020942 9 39 0.0 0.0 0.00 0.00 0.00 79 3409.0
20260508020440 10 35 0.0 0.0 0.00 0.00 0.00 78 3408.7
20260508015937 10 34 0.0 0.0 0.00 0.00 0.00 77 3408.7
20260508015435 10 33 0.0 0.0 0.00 0.00 0.00 76 3408.8
20260508014931 10 33 0.0 0.0 0.00 0.00 0.00 75 3408.7
20260508014428 10 33 0.0 0.0 0.00 0.00 0.00 75 3408.5
20260508013924 10 33 0.0 0.0 0.00 0.00 0.00 75 3408.5
20260508013420 11 33 0.0 0.0 0.00 0.00 0.00 74 3408.5
20260508012917 11 33 0.0 0.0 0.00 0.00 0.00 73 3408.5
20260508012414 11 33 0.0 0.0 0.00 0.00 0.00 72 3408.5
20260508011912 11 33 0.0 0.0 0.00 0.00 0.00 71 3408.5
20260508011410 11 33 0.0 0.0 0.00 0.00 0.00 71 3408.3
20260508010907 12 33 0.0 0.0 0.00 0.00 0.00 68 3408.1
20260508010404 12 33 0.0 0.0 0.00 0.00 0.00 67 3408.4
20260508005901 12 33 0.0 0.0 0.00 0.00 0.00 68 3408.2